FW3795 Weather Reports


time (UTC)temp
F
wind
direction
speed
knots
gust
knots
rain 1hr
in
rain 24hr
in
rain mn
in
humidity
%
barometer
mb
20260504201600 72 246 11.3 17.4 0.00 0.00 0.00 30 1003.8
20260504200055 73 217 9.6 16.5 0.00 0.00 0.00 30 1004.2
20260504194553 71 140 5.2 17.4 0.00 0.00 0.00 33 1004.4
20260504193050 72 205 9.6 18.2 0.00 0.00 0.00 31 1004.7
20260504191547 72 227 9.6 20.9 0.00 0.00 0.00 31 1004.8
20260504190044 71 239 9.6 23.5 0.00 0.00 0.00 33 1005.1
20260504184542 71 274 10.4 16.5 0.00 0.00 0.00 35 1005.2
20260504183039 71 229 10.4 20.9 0.00 0.00 0.00 35 1005.4
20260504181537 71 262 11.3 18.2 0.00 0.00 0.00 35 1005.4
20260504180036 70 262 9.6 18.2 0.00 0.00 0.00 37 1005.6
20260504174531 69 247 8.7 21.7 0.00 0.00 0.00 39 1005.6
20260504173029 68 215 10.4 16.5 0.00 0.00 0.00 40 1005.7
20260504171526 68 245 7.8 15.6 0.00 0.00 0.00 41 1005.9
20260504081532 49 165 4.3 7.8 0.00 0.00 0.00 55 1008.7
20260504050007 49 185 0.0 0.0 0.00 0.00 0.00 56 1009.5
20260504044504 49 185 0.9 5.2 0.00 0.00 0.00 54 1009.4
20260504043002 49 243 0.9 3.5 0.00 0.00 0.00 56 1009.7
20260504041602 49 238 0.9 2.6 0.00 0.00 0.00 55 1009.7
20260504040055 50 244 0.0 0.0 0.00 0.00 0.00 54 1009.8
20260504034554 50 244 0.0 1.7 0.00 0.00 0.00 52 1009.7
20260504033054 51 244 0.9 2.6 0.00 0.00 0.00 50 1009.8
20260504031554 52 244 0.0 0.9 0.00 0.00 0.00 47 1009.8
20260504030054 53 244 0.9 3.5 0.00 0.00 0.00 46 1009.9
20260504024608 53 220 2.6 6.1 0.00 0.00 0.00 44 1010.0
20260504023053 53 209 1.7 3.5 0.00 0.00 0.00 43 1010.3
20260504021552 54 221 2.6 6.1 0.00 0.00 0.00 42 1010.3
20260504020051 54 242 0.9 4.3 0.00 0.00 0.00 42 1010.4
20260504014556 54 209 0.9 6.1 0.00 0.00 0.00 41 1010.6
20260504013054 55 228 0.9 7.8 0.00 0.00 0.00 40 1010.6
20260504011551 55 250 3.5 9.6 0.00 0.00 0.00 38 1010.5
20260504010049 55 221 5.2 10.4 0.00 0.00 0.00 38 1010.4
20260504004549 55 264 10.4 17.4 0.00 0.00 0.00 37 1010.3
20260504003053 55 257 6.1 20.0 0.00 0.00 0.00 37 1010.2
20260504001549 56 272 11.3 20.9 0.00 0.00 0.00 35 1010.3
20260504000113 56 278 15.6 20.9 0.00 0.00 0.00 34 1010.1
20260503234553 57 305 15.6 27.8 0.00 0.00 0.00 34 1009.9
20260503233045 57 303 15.6 26.1 0.00 0.00 0.00 34 1009.7
20260503231545 57 248 7.0 15.6 0.00 0.00 0.00 34 1009.8
20260503230050 57 268 9.6 18.2 0.00 0.00 0.00 34 1009.7
20260503224544 57 262 15.6 21.7 0.00 0.00 0.00 34 1009.7
20260503223042 57 282 13.0 25.2 0.00 0.00 0.00 34 1009.6
20260503221549 57 300 8.7 12.2 0.00 0.00 0.00 37 1009.4
20260503220041 57 282 8.7 12.2 0.00 0.00 0.00 38 1009.4
20260503214543 56 266 12.2 16.5 0.00 0.00 0.00 37 1009.5
20260503213040 56 238 7.8 17.4 0.00 0.00 0.00 37 1009.6
20260503211539 56 249 6.1 14.8 0.00 0.00 0.00 39 1009.6
20260503210037 57 229 6.1 13.0 0.00 0.00 0.00 38 1009.7
20260503204533 56 246 10.4 17.4 0.00 0.00 0.00 39 1009.8
20260503203040 55 205 5.2 10.4 0.00 0.00 0.00 39 1010.1